Regional Weather Roundup
Issued by NWS

Home | Current Version | Previous Version | Text Only | Print | Product List | Glossary On
Versions: 1 2 3 4 5 6 7 8 9 10 11 12 13 14 15 16 17 18 19 20 21 22 23 24 25 26 27 28 29 30 31 32 33 34 35 36 37 38 39 40 41 42 43 44 45 46 47 48 49 50
000
ASUS43 KLSX 250307
RWRMO

WEATHER SUMMARY FOR MISSOURI
NATIONAL WEATHER SERVICE SPRINGFIELD MO
1000 PM CDT WED AUG 24 2016

NOTE: "FAIR" INDICATES FEW OR NO CLOUDS BELOW 12,000 FEET WITH NO
       SIGNIFICANT WEATHER AND/OR OBSTRUCTIONS TO VISIBILITY.
       CURRENT SKY AND/OR WEATHER CONDITIONS ARE NOT AVAILABLE FOR
       CHILLICOTHE AND FARMINGTON.

MOZ001>031-035>038-043-044-053-054-250400-
...NORTHERN AND WESTERN MISSOURI...

CITY           SKY/WX    TMP DP  RH WIND       PRES   REMARKS
KANSAS CTY INT LGT RAIN  72  68  87 E7        30.03R
KANSAS C DTWN  TSTM      74  71  91 NE6       30.02R FOG
LEE`S SUMMIT   TSTM      70  69  97 S9        30.08R FOG
ST JOSEPH      CLOUDY    70  68  93 CALM      30.02S
CHILLICOTHE      N/A     75  73  93 CALM      30.04R
KIRKSVILLE     RAIN      76  74  93 NW9       30.02R FOG

$$
MOZ066>068-077>081-088>096-101>105-250400-
...SOUTHWEST MISSOURI...

CITY           SKY/WX    TMP DP  RH WIND       PRES   REMARKS
SPRINGFIELD    CLEAR     80  69  69 S12       30.06R
JOPLIN         CLEAR     82  69  64 S12       30.03R
BRANSON        CLEAR     77  72  83 S5        30.11R

$$
MOZ032>034-039>042-045>050-055>058-069>072-250400-
...CENTRAL MISSOURI...

CITY           SKY/WX    TMP DP  RH WIND       PRES   REMARKS
COLUMBIA       PTCLDY    79  75  87 SE8       29.99F
JEFFERSON CITY CLEAR     80  76  87 SE5       29.99R
ROLLA          CLEAR     80  73  79 S10       30.05R
SEDALIA        PTCLDY    81  75  82 S8        29.99R
WHITEMAN AFB   MOCLDY    80  75  83 N16G29    29.99R THUNDER
OSAGE BEACH    CLEAR     81  74  79 S8        30.03R

$$
MOZ051-052-059>065-250400-
...EAST CENTRAL MISSOURI...

CITY           SKY/WX    TMP DP  RH WIND       PRES   REMARKS
ST LOUIS INTL  MOCLDY    87  74  64 S10       30.02R HX  95
SPIRIT OF STL  PTCLDY    83  74  74 S6        30.00R
ST CHARLES     PTCLDY    79  77  94 S3        29.99S

$$
MOZ072>076-082>087-097>100-106>115-250400-
...SOUTH CENTRAL AND SOUTHEAST MISSOURI...

CITY           SKY/WX    TMP DP  RH WIND       PRES   REMARKS
CAPE GIRARDEAU CLEAR     80  75  84 S7        30.06R
FARMINGTON     CLEAR     79  75  87 VRB3      30.08R
POPLAR BLUFF   CLEAR     81  75  82 S8        30.06R
WEST PLAINS    CLEAR     79  70  74 S6        30.12R

$$



USA.gov is the U.S. government's official web portal to all federal, state and local government web resources and services.